GW5992 Weather Reports


time (UTC)temp
F
wind
direction
speed
knots
gust
knots
rain 1hr
in
rain 24hr
in
rain mn
in
humidity
%
barometer
mb
20260506114717 58 360 2.6 11.3 0.00 0.00 0.00 56 1013.7
20260506113604 58 4 5.2 15.6 0.00 0.00 0.00 55 1013.8
20260506112703 58 6 3.5 10.4 0.00 0.00 0.00 54 1013.8
20260506111803 58 356 3.5 11.3 0.00 0.00 0.00 54 1013.9
20260506110905 58 353 4.3 13.0 0.00 0.00 0.00 54 1013.8
20260506110005 57 357 4.3 13.0 0.00 0.00 0.00 54 1013.8
20260506105403 57 351 3.5 11.3 0.00 0.00 0.00 55 1013.9
20260506104505 57 343 3.5 10.4 0.00 0.00 0.00 59 1013.8
20260506103603 56 1 4.3 12.2 0.00 0.00 0.00 57 1013.8
20260506102705 56 348 3.5 10.4 0.00 0.00 0.00 59 1013.8
20260506101805 57 359 3.5 9.6 0.00 0.00 0.00 59 1013.8
20260506100903 56 7 4.3 9.6 0.00 0.00 0.00 60 1013.8
20260506100004 55 10 4.3 13.9 0.00 0.00 0.00 62 1013.8
20260506095622 55 6 4.3 13.9 0.00 0.00 0.00 62 1013.7
20260506094503 55 358 4.3 14.8 0.00 0.00 0.00 61 1013.7
20260506093605 55 357 4.3 13.0 0.00 0.00 0.00 64 1013.7
20260506092917 54 5 2.6 13.0 0.00 0.00 0.00 67 1013.7
20260506091805 52 5 3.5 8.7 0.00 0.00 0.00 72 1013.7
20260506090905 50 351 3.5 8.7 0.00 0.00 0.00 72 1013.8
20260506090005 50 3 1.7 7.8 0.00 0.00 0.00 74 1013.8
20260506085405 49 360 3.5 8.7 0.00 0.00 0.00 74 1013.8
20260506084505 49 345 2.6 8.7 0.00 0.00 0.00 75 1013.8
20260506083819 49 358 4.3 12.2 0.00 0.00 0.00 74 1013.8
20260506082706 48 1 3.5 10.4 0.00 0.00 0.00 76 1013.7
20260506081806 48 357 4.3 10.4 0.00 0.00 0.00 77 1013.8
20260506072704 46 344 2.6 8.7 0.00 0.00 0.00 80 1013.9
20260506072019 46 346 2.6 10.4 0.00 0.00 0.00 80 1013.8
20260506070905 47 350 3.5 10.4 0.00 0.00 0.00 79 1013.7
20260506061803 46 9 1.7 7.8 0.00 0.00 0.00 82 1013.5
20260506060905 46 356 2.6 10.4 0.00 0.00 0.00 82 1013.5
20260506050905 45 357 1.7 7.8 0.00 0.00 0.00 83 1013.4
20260506050219 45 5 1.7 7.8 0.00 0.00 0.00 83 1013.3
20260506044503 46 340 1.7 7.0 0.00 0.00 0.00 83 1013.3
20260506043820 46 327 0.9 4.3 0.00 0.00 0.00 83 1013.2
20260506042917 46 353 0.9 3.5 0.00 0.00 0.00 83 1013.2
20260506041805 46 345 1.7 5.2 0.00 0.00 0.00 83 1013.2
20260506040905 46 4 0.9 5.2 0.00 0.00 0.00 83 1013.4
20260506040005 46 344 2.6 7.8 0.00 0.00 0.00 83 1013.4
20260506035616 46 350 2.6 7.8 0.00 0.00 0.00 83 1013.4
20260506034505 46 338 1.7 5.2 0.00 0.00 0.00 82 1013.3
20260506033605 46 341 1.7 7.0 0.00 0.00 0.00 82 1013.3
20260506032919 46 350 1.7 7.8 0.00 0.00 0.00 82 1013.3
20260506031804 47 9 0.0 3.5 0.00 0.00 0.00 82 1013.3
20260506030904 47 12 1.7 7.0 0.00 0.00 0.00 82 1013.5
20260506030003 47 20 0.9 7.8 0.00 0.00 0.00 82 1013.4
20260506025404 47 26 1.7 7.8 0.00 0.00 0.00 82 1013.5
20260506024503 47 10 1.7 8.7 0.00 0.00 0.00 82 1013.5
20260506023604 47 7 1.7 7.0 0.00 0.00 0.00 82 1013.4
20260506022703 48 7 2.6 10.4 0.00 0.00 0.00 83 1013.4
20260506022017 48 353 2.6 7.8 0.00 0.00 0.00 83 1013.4
20260506020905 48 1 3.5 9.6 0.00 0.00 0.00 83 1013.5
20260506020003 48 4 2.6 7.8 0.00 0.00 0.00 83 1013.5
20260506015403 48 7 2.6 10.4 0.00 0.00 0.00 83 1013.5
20260506014504 48 2 2.6 7.8 0.00 0.00 0.00 82 1013.3
20260506013603 48 12 1.7 7.0 0.00 0.00 0.00 82 1013.3
20260506012703 48 3 1.7 7.8 0.00 0.00 0.00 82 1013.4
20260506011805 49 4 2.6 8.7 0.00 0.00 0.00 82 1013.4
20260506010905 49 354 0.9 5.2 0.00 0.00 0.00 83 1013.5
20260506010005 49 358 1.7 7.0 0.00 0.00 0.00 83 1013.6
20260506005403 49 347 1.7 7.0 0.00 0.00 0.00 83 1013.6
20260506004505 49 18 0.9 3.5 0.00 0.00 0.00 83 1013.5
20260506003603 49 8 0.9 3.5 0.00 0.00 0.00 83 1013.5
20260506002703 50 7 2.6 8.7 0.00 0.00 0.00 83 1013.5
20260506001805 50 5 2.6 8.7 0.00 0.00 0.00 83 1013.6
20260506000905 50 12 1.7 7.8 0.00 0.00 0.00 82 1013.6
20260506000005 50 1 1.7 4.3 0.00 0.00 0.00 82 1013.6
20260505235405 50 10 1.7 6.1 0.00 0.00 0.00 81 1013.6
20260505234503 50 5 1.7 7.8 0.00 0.00 0.00 81 1013.6
20260505233603 50 7 1.7 8.7 0.00 0.00 0.00 81 1013.6
20260505232922 50 8 1.7 6.1 0.00 0.00 0.00 80 1013.7
20260505231805 50 2 3.5 9.6 0.00 0.00 0.00 79 1013.6
20260505230903 50 6 1.7 5.2 0.00 0.00 0.00 79 1013.6
20260505230005 51 37 0.9 4.3 0.00 0.00 0.00 78 1013.7
20260505225617 51 28 1.7 7.0 0.00 0.00 0.00 78 1013.6
20260505224719 51 6 2.6 10.4 0.00 0.00 0.00 77 1013.6
20260505223605 51 11 2.6 9.6 0.00 0.00 0.00 77 1013.6
20260505222703 51 4 3.5 13.0 0.00 0.00 0.00 76 1013.6
20260505221805 52 3 4.3 12.2 0.00 0.00 0.00 76 1013.6
20260505220904 52 6 5.2 12.2 0.00 0.00 0.00 76 1013.5
20260505220005 52 16 2.6 7.0 0.00 0.00 0.00 76 1013.5
20260505215618 52 13 2.6 9.6 0.00 0.00 0.00 76 1013.4
20260505214503 53 7 1.7 7.8 0.00 0.00 0.00 75 1013.4
20260505213605 53 3 1.7 5.2 0.00 0.00 0.00 75 1013.2
20260505212705 53 7 2.6 8.7 0.00 0.00 0.00 74 1013.2
20260505212020 54 5 4.3 10.4 0.00 0.00 0.00 74 1013.1
20260505210905 54 13 2.6 8.7 0.00 0.00 0.00 72 1013.1
20260505210005 54 17 1.7 7.8 0.00 0.00 0.00 72 1013.0
20260505205403 54 7 2.6 7.8 0.00 0.00 0.00 72 1013.0
20260505204719 54 9 2.6 7.8 0.00 0.00 0.00 72 1012.9
20260505203818 55 5 3.5 11.3 0.00 0.00 0.00 73 1013.0
20260505202705 55 2 1.7 7.8 0.00 0.00 0.00 73 1012.8
20260505201805 55 6 1.7 7.0 0.00 0.00 0.00 73 1012.7
20260505200905 55 8 3.5 11.3 0.00 0.00 0.00 73 1012.7
20260505200218 55 9 3.5 9.6 0.00 0.00 0.00 73 1012.7
20260505195404 56 3 2.6 9.6 0.00 0.00 0.00 74 1012.6
20260505194505 56 9 2.6 8.7 0.00 0.00 0.00 74 1012.4
20260505193818 56 10 2.6 8.7 0.00 0.00 0.00 74 1012.4
20260505192704 56 9 3.5 13.0 0.00 0.00 0.00 73 1012.3
20260505191803 57 5 4.3 12.2 0.00 0.00 0.00 72 1012.2
20260505191118 57 354 4.3 12.2 0.00 0.00 0.00 71 1012.2
20260505190005 57 358 3.5 12.2 0.00 0.00 0.00 70 1012.0
20260505185403 58 4 2.6 12.2 0.00 0.00 0.00 69 1011.9
20260505184503 58 3 1.7 7.0 0.00 0.00 0.00 69 1011.8
20260505183604 58 8 1.7 7.8 0.00 0.00 0.00 69 1011.8
20260505182703 58 16 1.7 8.7 0.00 0.00 0.00 69 1011.7
20260505181805 58 6 1.7 6.1 0.00 0.00 0.00 70 1011.8
20260505180903 58 354 1.7 4.3 0.00 0.00 0.00 70 1011.7
20260505180003 58 345 1.7 4.3 0.00 0.00 0.00 69 1011.8
20260505175404 58 342 2.6 6.1 0.00 0.00 0.00 69 1011.8
20260505174718 58 340 1.7 6.1 0.00 0.00 0.00 69 1011.7
20260505173605 58 344 1.7 4.3 0.00 0.00 0.00 69 1011.8
20260505172919 58 351 1.7 4.3 0.00 0.00 0.00 69 1011.8
20260505171803 58 350 2.6 7.8 0.00 0.00 0.00 68 1011.8
20260505170904 58 347 1.7 7.8 0.00 0.00 0.00 68 1012.0
20260505170003 59 343 2.6 6.1 0.00 0.00 0.00 67 1012.0
20260505165405 59 354 2.6 5.2 0.00 0.00 0.00 67 1012.0
20260505164503 59 353 1.7 4.3 0.00 0.00 0.00 67 1012.0
20260505163603 59 339 2.6 6.1 0.00 0.00 0.00 66 1012.0
20260505162703 59 351 2.6 7.0 0.00 0.00 0.00 66 1012.0
20260505162020 59 347 2.6 8.7 0.00 0.00 0.00 65 1012.0
20260505160904 60 7 1.7 7.8 0.00 0.00 0.00 66 1011.9
20260505152705 59 342 1.7 4.3 0.00 0.00 0.00 68 1012.1
20260505151803 59 335 1.7 4.3 0.00 0.00 0.00 68 1012.1
20260505151119 59 351 2.6 7.0 0.00 0.00 0.00 68 1012.1
20260505124506 61 356 0.9 4.3 0.00 0.00 0.00 64 1012.6
20260505123605 61 13 0.9 5.2 0.00 0.00 0.00 64 1012.6
20260505122705 61 14 0.9 7.0 0.00 0.00 0.00 65 1012.6
20260505121804 61 353 1.7 6.1 0.00 0.00 0.00 64 1012.6
20260505120905 61 337 0.9 3.5 0.00 0.00 0.00 64 1012.6
20260505120004 61 3 0.9 2.6 0.00 0.00 0.00 65 1012.6
20260505115616 61 9 0.9 2.6 0.00 0.00 0.00 65 1012.7